Flag for France Weather past 2 weeks in Amiens, France

Now
55 °F

Fog.


Feels Like: 55 °F
Forecast: 58 / 78 °F
Wind: No wind

Location: Beauvais Airport

Current Time: Sep 19, 2014 at 6:53:45 AM

Latest Report: Sep 19, 2014 at 6:30 AM


Visibility: 0 mi

Pressure: 29.83 "Hg

Humidity: 100%

Dew point: 55 °F

Location of AmiensLocation

Historic Weather in Amiens — Graph

°F

Amiens temperature yesterday

Maximum temperature yesterday: 81 °F (at 2:00 PM)
Minimum temperature yesterday: 59 °F (at 7:30 AM)
Average temperature yesterday: 67 °F

Past Weeks' High & Low Weather Summary

 TemperatureHumidityPressure
High81 °F (Sep 18, 2:00 PM)100% (Sep 4, 6:00 AM)30.24 "Hg (Sep 4, 6:00 AM)
Low46 °F (Sep 11, 7:30 AM)44% (Sep 12, 5:30 PM)29.77 "Hg (Sep 17, 2:00 PM)
Average63 °F78%30.01 "Hg
* Reported Sep 4 5:00 AM — Sep 19 5:30 AM, Amiens, Weather by CustomWeather, © 2014

Note: Actual official high and low records may vary slightly from our data, if they occured in-between our weather recording intervals... More about our weather records

Advertising

Amiens weather history for previous 24 hours

 ConditionsComfort  
Time TempWeatherWind HumidityBarometerVisibility
5:30 AM
Sep 19
55 °FFog.No wind100%29.83 "Hg0 mi
5:00 AM55 °FFog.No wind100%29.83 "Hg0 mi
4:30 AM57 °FFog.No wind100%29.83 "Hg0 mi
4:00 AM59 °FFog.1 mph94%29.83 "Hg0 mi
3:30 AM59 °FFog.No wind94%29.83 "Hg2 mi
3:00 AM57 °FDense fog.2 mph100%29.83 "Hg1 mi
2:30 AM59 °FFog.No wind100%29.83 "Hg0 mi
2:00 AM59 °FFog.No wind94%29.83 "Hg0 mi
1:30 AM59 °FFog.No wind100%29.83 "Hg0 mi
1:00 AM61 °FClear.2 mph100%29.83 "Hg4 mi
12:30 AM61 °FClear.3 mph100%29.83 "HgN/A
12:00 AM61 °FFog.2 mph94%29.83 "Hg1 mi
11:30 PM
Sep 18
61 °FFog.2 mph94%29.83 "Hg0 mi
11:00 PM61 °FFog.1 mph100%29.83 "Hg0 mi
10:30 PM63 °FClear.2 mph94%29.83 "Hg4 mi
10:00 PM63 °FClear.3 mph94%29.83 "HgN/A
9:30 PM63 °FClear.No wind100%29.83 "HgN/A
9:00 PM63 °FClear.No wind94%29.83 "HgN/A
8:30 PM63 °FClear.2 mph94%29.80 "HgN/A
8:00 PM64 °FMild.3 mph94%29.80 "HgN/A
7:30 PM64 °FLight rain. Cloudy.3 mph94%29.80 "HgN/A
7:00 PM64 °FLight rain. Cloudy.5 mph94%29.80 "HgN/A
6:30 PM64 °FThunderstorms. Cloudy.3 mph88%29.80 "HgN/A
6:00 PM64 °FThunderstorms. Broken clouds.8 mph88%29.80 "HgN/A
5:30 PM66 °FStrong thunderstorms. Fog.24 mph83%29.77 "Hg1 mi
5:00 PM79 °FPartly sunny.5 mph54%29.77 "HgN/A
4:30 PM79 °FWarm.7 mph51%29.77 "HgN/A
4:00 PM79 °FPassing clouds.7 mph51%29.77 "HgN/A
3:30 PM81 °FPassing clouds.5 mph48%29.77 "HgN/A
3:00 PM81 °FPassing clouds.6 mph51%29.77 "HgN/A
2:30 PM79 °FPassing clouds.6 mph58%29.77 "HgN/A
2:00 PM81 °FPassing clouds.5 mph54%29.77 "HgN/A
1:30 PM79 °FClear.6 mph54%29.77 "HgN/A
1:00 PM77 °FClear.3 mph61%29.77 "HgN/A
12:30 PM77 °FClear.5 mph57%29.77 "HgN/A
12:00 PM75 °FClear.2 mph65%29.77 "HgN/A
11:30 AM73 °FClear.2 mph69%29.80 "HgN/A
11:00 AM70 °FClear.3 mph78%29.80 "HgN/A
10:30 AM70 °FClear.2 mph78%29.80 "HgN/A
10:00 AM66 °FClear.5 mph83%29.80 "HgN/A
9:30 AM63 °FClear.5 mph94%29.77 "HgN/A
9:00 AM64 °FPassing clouds.No wind88%29.77 "HgN/A
8:30 AM61 °FClear.2 mph94%29.77 "HgN/A
8:00 AM59 °FClear.5 mph94%29.77 "HgN/A
7:30 AM59 °FClear.5 mph94%29.77 "HgN/A
7:00 AM61 °FClear.2 mph88%29.77 "HgN/A
6:30 AM61 °FClear.2 mph94%29.77 "HgN/A
6:00 AM63 °FClear.No wind88%29.77 "HgN/A
Weather by CustomWeather, © 2014

See weather overviewHow to use our weather pages